User: anonymous   Login
Location: Czekan�w
(50.3488°N, 18.7344°E)
Time: 07:33:03
(UTC+00:00)
Language:

NOSS 2-1 (D) - Orbit

View from above orbital plane
View from above orbital plane
View from above satellite
View from above satellite

Ground track
Ground track

The orbit data is extracted from the following two-line orbital elements,

1 20692U 90050D   20155.39231578 0.00000260  00000-0  40606-4 0    05
2 20692  63.3223 265.0688 0870944  46.1369 313.8631 13.42050028    06
Epoch (UTC): 03 June 2020 09:24:56
Eccentricity: 0.0870944
inclination: 63.3223°
perigee height: 450 km
apogee height: 1753 km
right ascension of ascending node: 265.0688°
argument of perigee: 46.1369°
revolutions per day: 13.42050028
mean anomaly at epoch: 313.8631°
orbit number at epoch: 0

The dashed part of the orbit path shows where the satellite is in the earth's shadow,  

DLR